[[{"header":{"parameterUnit":"m.s-1","parameterCategory":1,"la1":30.2991,"la2":30.254,"lo1":-89.0895,"lo2":-89.0444,"dy":0.0017,"dx":0.0017,"nx":28,"ny":28,"refTime":"2025-11-28T09:00:00:Z","depth":0,"parameterNumber":2,"parameterNumberName":"U-component_of_WINDS"},"data":[0,0,0,0,0,0,0,0,0,0,0,0,0,0,0,0,0,0,0,0,0,0,0,0,0,0,0,0,0,0,0,0,0,0,0,0,0,0,0,0,0,0,0,0,0,0,0,0,0,0,0,0,0,0,0,0,0,0,-3.7161,-3.7163,0,-3.7307,-3.7309,-3.731,-3.7363,-3.7362,-3.7362,-3.7361,-3.751,-3.7514,-3.7518,0,0,0,0,0,0,0,0,0,0,0,0,0,-3.6928,-3.6932,-3.7161,-3.7163,-3.7165,-3.7307,-3.7309,-3.7311,-3.7363,-3.7362,-3.7362,-3.7361,-3.7508,-3.7514,-3.7519,0,0,0,0,0,0,0,0,0,0,0,0,0,-3.7047,-3.6933,-3.7161,-3.7208,-3.7214,-3.7306,-3.7309,-3.7311,-3.7363,-3.7362,-3.7361,-3.7361,-3.7507,-3.7513,-3.752,-3.7576,0,0,-3.754,-3.7543,0,0,0,0,0,0,0,0,-3.704,-3.7055,-3.7199,-3.7205,-3.7211,-3.7316,-3.7281,-3.74,-3.7363,-3.7306,-3.7361,-3.736,-3.7446,-3.7457,-3.7487,-3.7583,-3.7589,-3.7541,-3.7545,-3.7547,-3.7549,0,0,0,0,0,0,0,-3.7032,-3.7049,-3.7219,-3.7201,-3.7209,-3.7222,-3.7238,-3.7304,-3.7379,-3.7311,-3.7315,-3.7332,-3.7449,-3.748,-3.749,-3.7592,-3.754,-3.7546,-3.755,-3.7553,-3.7742,-3.7743,0,0,0,0,0,0,-3.7016,-3.7042,-3.7214,-3.7223,-3.7122,-3.7227,-3.7245,-3.7283,-3.7378,-3.7392,-3.7332,-3.7334,-3.7469,-3.7483,-3.7496,-3.7568,-3.7547,-3.7554,-3.7557,-3.7741,-3.7743,-3.7744,0,0,0,0,0,0,-3.701,-3.7031,-3.7208,-3.7134,-3.7158,-3.7231,-3.7274,-3.7286,-3.7317,-3.7394,-3.7408,-3.735,-3.7469,-3.7486,-3.7556,-3.7574,-3.7557,-3.7563,-3.774,-3.7742,-3.7743,-3.7713,0,0,0,0,0,0,-3.7004,-3.7028,-3.705,-3.7134,-3.7161,-3.7266,-3.7275,-3.729,-3.7329,-3.7332,-3.7414,-3.7427,-3.747,-3.7546,-3.7562,-3.7583,-3.7568,-3.7739,-3.7741,-3.7743,-3.7713,-3.7713,-3.7714,0,0,0,0,0,-3.6995,-3.7036,-3.7051,-3.7072,-3.7191,-3.7267,-3.7282,-3.733,-3.733,-3.7353,-3.7402,-3.7425,-3.757,-3.7552,-3.7572,-3.7594,-3.7738,-3.774,-3.7743,-3.7712,-3.7713,-3.7714,0,0,0,0,0,0,-3.6952,-3.7048,-3.7066,-3.7135,-3.7192,-3.7275,-3.7306,-3.733,-3.7388,-3.7389,-3.7446,-3.7464,-3.7529,-3.7569,-3.7548,-3.7654,-3.7655,-3.7661,-3.7625,-3.7627,-3.7627,-3.7616,-3.7573,0,0,0,0,0,-3.6951,-3.7005,-3.7086,-3.7139,-3.7167,-3.7231,-3.7266,-3.7298,-3.736,-3.7384,-3.7439,-3.7498,-3.7557,-3.7594,-3.7653,-3.7719,-3.7738,-3.7744,-3.7745,-3.7745,-3.7749,-3.7788,-3.7791,-3.7751,-3.7751,-3.7751,0,0,-3.6948,-3.7007,-3.7038,-3.7132,-3.718,-3.7234,-3.7251,-3.7308,-3.7349,-3.7393,-3.7462,-3.7504,-3.7574,-3.7642,-3.7675,-3.7677,-3.7765,-3.7748,-3.7747,-3.7752,-3.779,-3.7794,-3.7797,-3.7753,-3.7753,-3.7753,0,0,-3.6972,-3.7022,-3.7072,-3.712,-3.7193,-3.7236,-3.7248,-3.7328,-3.7357,-3.7427,-3.7462,-3.7512,-3.7612,-3.766,-3.7697,-3.774,-3.7763,-3.7758,-3.776,-3.7797,-3.78,-3.7803,-3.7817,-3.7822,-3.7762,-3.7762,-3.7762,0,-3.6959,-3.7043,-3.7094,-3.715,-3.719,-3.7233,-3.7284,-3.7328,-3.7416,-3.7443,-3.7445,-3.7572,-3.7622,-3.7702,-3.7712,-3.7741,-3.7757,-3.7748,-3.7795,-3.7799,-3.7802,-3.7817,-3.7822,-3.7761,-3.7761,-3.7761,-3.7761,0,-3.7024,-3.7081,-3.7113,-3.7197,-3.7241,-3.7294,-3.7353,-3.7392,-3.742,-3.7463,-3.7534,-3.7596,-3.7667,-3.7689,-3.7717,-3.7773,-3.7772,-3.7784,-3.7786,-3.7804,-3.7819,-3.7825,-3.7759,-3.776,-3.776,-3.776,0,0,-3.7023,-3.7135,-3.7146,-3.7185,-3.7269,-3.7315,-3.737,-3.744,-3.7472,-3.7531,-3.7579,-3.7663,-3.7675,-3.7717,-3.7752,-3.7784,-3.7813,-3.7792,-3.7794,-3.7793,-3.7878,-3.7868,-3.7874,-3.7829,-3.7831,-3.7832,-3.7872,0,-3.7056,-3.7156,-3.7204,-3.7283,-3.7337,-3.7379,-3.7427,-3.7484,-3.7525,-3.7577,-3.7623,-3.7682,-3.7693,-3.7719,-3.7753,-3.7802,-3.7831,-3.78,-3.7873,-3.7875,-3.7853,-3.7881,-3.7871,-3.7906,-3.7878,-3.7879,-3.788,0,-3.7109,-3.7168,-3.7252,-3.733,-3.7355,-3.7397,-3.7465,-3.7514,-3.758,-3.7608,-3.7656,-3.769,-3.7749,-3.7748,-3.7831,-3.7809,-3.7842,-3.7871,-3.7874,-3.7881,-3.7878,-3.7889,-3.7918,-3.7923,-3.789,-3.7889,-3.7888,0,-3.7098,-3.72,-3.7263,-3.7295,-3.7388,-3.7417,-3.7457,-3.7522,-3.7561,-3.7621,-3.7648,-3.7714,-3.775,-3.78,-3.7851,-3.7846,-3.7929,-3.7932,-3.7954,-3.7952,-3.7968,-3.7966,-3.8002,-3.7991,-3.7991,-3.7991,-3.7991,0,-3.713,-3.718,-3.726,-3.7299,-3.7355,-3.7411,-3.7466,-3.7509,-3.7567,-3.7615,-3.7656,-3.77,-3.7765,-3.7817,-3.7858,-3.792,-3.7936,-3.796,-3.797,-3.7956,-3.7953,-3.7978,-3.7976,-3.7992,-3.7992,-3.7992,-3.7992,0,-3.7128,-3.7184,-3.7255,-3.7338,-3.736,-3.7398,-3.7469,-3.7508,-3.7552,-3.7612,-3.763,-3.7699,-3.7763,-3.7819,-3.7904,-3.7931,-3.7994,-3.8007,-3.7972,-3.7977,-3.7996,-3.7993,-3.8048,-3.8058,-3.804,-3.804,-3.804,0,-3.7144,-3.7183,-3.727,-3.7305,-3.7344,-3.74,-3.7441,-3.7497,-3.7538,-3.7616,-3.7646,-3.7713,-3.7769,-3.787,-3.7928,-3.7993,-3.8007,-3.8022,-3.8017,-3.8001,-3.8006,-3.8003,-3.8007,-3.8021,-3.8021,-3.8021,-3.8021,0,-3.7166,-3.7192,-3.7249,-3.7315,-3.7363,-3.7418,-3.7474,-3.7501,-3.7568,-3.7611,-3.7677,-3.7721,-3.7808,-3.7874,-3.7945,-3.7987,-3.8015,-3.8022,-3.8031,-3.8016,-3.7994,-3.8005,-3.7971,-3.802,-3.802,-3.802,-3.802,-3.802,-3.7173,-3.721,-3.7277,-3.7339,-3.7387,-3.7439,-3.748,-3.753,-3.7586,-3.766,-3.7691,-3.7758,-3.7823,-3.7922,-3.7964,-3.8017,-3.8022,-3.8034,-3.8037,-3.8039,-3.8036,-3.7986,-3.8031,-3.8031,-3.8031,-3.8031,-3.8031,0,-3.7197,-3.7242,-3.7299,-3.7377,-3.7425,-3.7448,-3.7512,-3.7551,-3.761,-3.7668,-3.7723,-3.7799,-3.7864,-3.7927,-3.7995,-3.8026,-3.804,-3.8041,-3.8039,-3.8048,-3.8029,-3.8014,-3.8028,-3.8028,-3.8028,-3.8028,-3.8028,-3.8028,-3.7215,-3.7278,-3.7312,-3.74,-3.7445,-3.7511,-3.7546,-3.7594,-3.7641,-3.7724,-3.7778,-3.7819,-3.7879,-3.7952,-3.8012,-3.8029,-3.8052,-3.805,-3.807,-3.805,-3.805,-3.8049,-3.8036,-3.8054,-3.8054,-3.8085,-3.8085,-3.8086]},{"header":{"parameterUnit":"m.s-1","parameterCategory":1,"la1":30.2991,"la2":30.254,"lo1":-89.0895,"lo2":-89.0444,"dy":0.0017,"dx":0.0017,"nx":28,"ny":28,"refTime":"2025-11-28T09:00:00:Z","depth":0,"parameterNumber":3,"parameterNumberName":"V-component_of_WINDS"},"data":[0,0,0,0,0,0,0,0,0,0,0,0,0,0,0,0,0,0,0,0,0,0,0,0,0,0,0,0,0,0,0,0,0,0,0,0,0,0,0,0,0,0,0,0,0,0,0,0,0,0,0,0,0,0,0,0,0,0,4.4685,4.4685,0,4.472,4.472,4.4721,4.468,4.4679,4.4677,4.4676,4.4709,4.4711,4.4713,0,0,0,0,0,0,0,0,0,0,0,0,0,4.4582,4.4584,4.4685,4.4685,4.4686,4.472,4.472,4.4721,4.4681,4.4679,4.4677,4.4675,4.4708,4.4711,4.4714,0,0,0,0,0,0,0,0,0,0,0,0,0,4.4623,4.4585,4.4685,4.467,4.4669,4.472,4.472,4.4721,4.4681,4.4679,4.4676,4.4674,4.4707,4.4711,4.4714,4.478,0,0,4.4724,4.4726,0,0,0,0,0,0,0,0,4.462,4.4626,4.4672,4.4671,4.467,4.4693,4.4696,4.4741,4.4682,4.4676,4.4676,4.4673,4.4705,4.4709,4.472,4.4782,4.4783,4.4725,4.4727,4.4728,4.4729,0,0,0,0,0,0,0,4.4618,4.4625,4.4698,4.4672,4.4671,4.4661,4.4664,4.4704,4.4703,4.4677,4.4674,4.4679,4.4705,4.4717,4.4721,4.4784,4.4725,4.4728,4.473,4.4731,4.4901,4.4904,0,0,0,0,0,0,4.4617,4.4623,4.4697,4.47,4.4639,4.4665,4.4668,4.4688,4.4702,4.4703,4.4681,4.4677,4.4712,4.4717,4.4722,4.48,4.4728,4.4731,4.4733,4.4899,4.4902,4.4905,0,0,0,0,0,0,4.4615,4.4624,4.4696,4.466,4.4669,4.4669,4.4691,4.469,4.4702,4.4705,4.4705,4.4694,4.4711,4.4717,4.4766,4.48,4.4733,4.4736,4.4896,4.49,4.4903,4.4957,0,0,0,0,0,0,4.4612,4.4623,4.4649,4.4661,4.4671,4.474,4.4694,4.4692,4.4709,4.4704,4.4718,4.4718,4.4709,4.4761,4.477,4.4804,4.4739,4.4893,4.4898,4.4902,4.4952,4.4962,4.497,0,0,0,0,0,4.4608,4.4662,4.465,4.4659,4.4703,4.4742,4.4748,4.4738,4.4712,4.4737,4.4739,4.4717,4.4796,4.4767,4.4776,4.4811,4.4891,4.4896,4.4902,4.4948,4.496,4.497,0,0,0,0,0,0,4.4651,4.4663,4.465,4.4709,4.4725,4.4736,4.4767,4.4751,4.4774,4.4769,4.4755,4.4758,4.4811,4.4816,4.4784,4.4877,4.4839,4.4846,4.4871,4.4882,4.4891,4.4888,4.4742,0,0,0,0,0,4.4668,4.47,4.4708,4.4759,4.4768,4.4767,4.4783,4.4775,4.4791,4.4797,4.4802,4.4818,4.4846,4.4865,4.4891,4.4953,4.4955,4.4982,4.4992,4.4999,4.5005,4.5039,4.5051,4.4923,4.4923,4.4923,0,0,4.4702,4.4712,4.4733,4.4768,4.478,4.4813,4.4772,4.4809,4.4833,4.4802,4.4849,4.4854,4.487,4.4927,4.4951,4.4933,4.5042,4.5006,4.5012,4.5014,4.5046,4.5058,4.5068,4.4927,4.4926,4.4925,0,0,4.478,4.4792,4.4836,4.4849,4.4867,4.4866,4.4877,4.489,4.4893,4.494,4.4918,4.4946,4.4995,4.5008,4.5021,4.5107,4.5087,4.5116,4.5163,4.5195,4.5205,4.5214,4.5244,4.5255,4.5122,4.5122,4.5122,0,4.482,4.4869,4.486,4.4899,4.4915,4.4891,4.4935,4.4947,4.4973,4.4984,4.4964,4.5025,4.5034,4.5093,4.5114,4.5126,4.5137,4.5113,4.5205,4.5214,4.5222,4.525,4.5261,4.5125,4.5125,4.5125,4.5124,0,4.4916,4.4951,4.4985,4.5011,4.5031,4.5073,4.5069,4.5091,4.5082,4.5083,4.5131,4.5142,4.517,4.5184,4.5174,4.5242,4.5229,4.5207,4.5169,4.5237,4.5264,4.5274,4.513,4.5129,4.5128,4.5127,0,0,4.502,4.5044,4.5056,4.5068,4.5088,4.5114,4.5154,4.5183,4.5201,4.5221,4.5253,4.5297,4.5277,4.5291,4.5283,4.5312,4.5379,4.5287,4.5287,4.5302,4.5453,4.5469,4.5481,4.5368,4.537,4.5371,4.5452,0,4.5098,4.5169,4.5163,4.5229,4.5261,4.524,4.5275,4.5291,4.5293,4.532,4.5323,4.5353,4.5325,4.5334,4.5362,4.5365,4.5409,4.536,4.5397,4.5398,4.5391,4.5495,4.5511,4.5586,4.5462,4.5464,4.5465,0,4.5198,4.5222,4.5292,4.5308,4.5321,4.5353,4.5379,4.5406,4.5423,4.5423,4.5441,4.5429,4.5469,4.5432,4.5486,4.5453,4.5468,4.5472,4.5475,4.5477,4.5434,4.5498,4.561,4.5621,4.5481,4.548,4.5479,0,4.5265,4.5315,4.5364,4.5375,4.5395,4.5418,4.5427,4.5443,4.5461,4.5484,4.5495,4.5523,4.5537,4.5558,4.5554,4.5527,4.561,4.5572,4.561,4.561,4.5626,4.5625,4.5741,4.5639,4.5639,4.5639,4.5638,0,4.5352,4.5395,4.5394,4.5424,4.5472,4.5466,4.5513,4.552,4.5534,4.5564,4.5548,4.5576,4.5569,4.5597,4.5594,4.564,4.5647,4.5647,4.5645,4.5648,4.5648,4.5656,4.565,4.5642,4.5641,4.564,4.564,0,4.5434,4.5436,4.5487,4.5503,4.5508,4.5542,4.5555,4.5583,4.5585,4.5624,4.5632,4.5636,4.5668,4.5667,4.5703,4.5701,4.5757,4.575,4.5751,4.5749,4.5787,4.5783,4.5911,4.5927,4.5816,4.5817,4.5818,0,4.5488,4.5521,4.5541,4.5561,4.5572,4.5604,4.5622,4.5618,4.5638,4.5662,4.5686,4.5718,4.5742,4.5796,4.5801,4.5829,4.5821,4.5864,4.5825,4.5827,4.582,4.5818,4.5821,4.5871,4.5872,4.5874,4.5874,0,4.5584,4.5584,4.5612,4.5641,4.5664,4.5687,4.5707,4.5724,4.5721,4.5745,4.5778,4.5798,4.5836,4.5867,4.5894,4.5903,4.5888,4.5887,4.5897,4.5899,4.5898,4.5898,4.577,4.5884,4.5883,4.5882,4.5881,4.5881,4.5653,4.5682,4.5701,4.5733,4.5748,4.5768,4.5795,4.5802,4.583,4.5861,4.5857,4.5895,4.5913,4.5948,4.5959,4.5988,4.5973,4.5988,4.5991,4.5994,4.5998,4.5895,4.5994,4.5993,4.5993,4.5993,4.5993,0,4.5747,4.5759,4.5789,4.5819,4.5844,4.583,4.5852,4.5874,4.5908,4.5926,4.5952,4.5991,4.6021,4.603,4.6059,4.6081,4.6075,4.6089,4.6086,4.6088,4.6011,4.5999,4.6093,4.6093,4.6093,4.6093,4.6093,4.6093,4.5799,4.5846,4.5849,4.5904,4.5915,4.5953,4.5967,4.5985,4.6,4.6044,4.607,4.6076,4.6091,4.6121,4.6149,4.6151,4.6162,4.6178,4.6177,4.6104,4.6094,4.6084,4.6072,4.6181,4.6181,4.6252,4.6252,4.6253]}]]